Time,TemperatureF,DewpointF,PressureIn,WindDirection,WindDirectionDegrees,WindSpeedMPH,WindSpeedGustMPH,Humidity,HourlyPrecipIn,Conditions,Clouds,dailyrainin,SolarRadiationWatts/m^2,SoftwareType,DateUTC
2013-06-26 00:01:00,63.0,45.0,-100.00,SSE,147,6.0,11.0,51,0.00,,,0.06,0.000000,,2013-06-26 06:01:00,
2013-06-26 00:22:00,60.0,45.0,-100.00,SSE,159,4.0,13.0,58,0.00,,,0.05,0.000000,,2013-06-26 06:22:00,
2013-06-26 00:34:00,60.0,45.0,-100.00,SSE,159,4.0,13.0,58,0.00,,,0.05,0.000000,,2013-06-26 06:34:00,
2013-06-26 00:44:00,60.0,45.0,-100.00,SSE,159,4.0,13.0,58,0.00,,,0.05,0.000000,,2013-06-26 06:44:00,
2013-06-26 00:53:00,60.0,45.0,-100.00,SSE,159,4.0,13.0,58,0.00,,,0.05,0.000000,,2013-06-26 06:53:00,
2013-06-26 01:01:00,60.0,45.0,-100.00,SSE,159,4.0,13.0,58,0.00,,,0.05,0.000000,,2013-06-26 07:01:00,
2013-06-26 01:33:00,61.0,46.0,-100.00,SSW,193,5.0,9.0,58,0.00,,,0.01,0.000000,,2013-06-26 07:33:00,
2013-06-26 01:43:00,61.0,46.0,-100.00,SSW,193,5.0,9.0,58,0.00,,,0.01,0.000000,,2013-06-26 07:43:00,
2013-06-26 01:53:00,61.0,46.0,-100.00,SSW,193,5.0,9.0,58,0.00,,,0.01,0.000000,,2013-06-26 07:53:00,
2013-06-26 02:01:00,61.0,46.0,-100.00,SSW,193,5.0,9.0,58,0.00,,,0.01,0.000000,,2013-06-26 08:01:00,
2013-06-26 02:33:00,63.0,42.0,-100.00,WNW,284,6.0,23.0,47,0.00,,,0.00,0.000000,,2013-06-26 08:33:00,
2013-06-26 02:43:00,63.0,42.0,-100.00,WNW,284,6.0,23.0,47,0.00,,,0.00,0.000000,,2013-06-26 08:43:00,
2013-06-26 02:53:00,63.0,42.0,-100.00,WNW,284,6.0,23.0,47,0.00,,,0.00,0.000000,,2013-06-26 08:53:00,
2013-06-26 03:01:00,63.0,42.0,-100.00,WNW,284,6.0,23.0,47,0.00,,,0.00,0.000000,,2013-06-26 09:01:00,
2013-06-26 03:33:00,58.0,44.0,-100.00,WNW,296,1.0,14.0,60,0.00,,,0.00,0.000000,,2013-06-26 09:33:00,
2013-06-26 03:43:00,58.0,44.0,-100.00,WNW,296,1.0,14.0,60,0.00,,,0.00,0.000000,,2013-06-26 09:43:00,
2013-06-26 03:53:00,58.0,44.0,-100.00,WNW,296,1.0,14.0,60,0.00,,,0.00,0.000000,,2013-06-26 09:53:00,
2013-06-26 04:01:00,58.0,44.0,-100.00,WNW,296,1.0,14.0,60,0.00,,,0.00,0.000000,,2013-06-26 10:01:00,
2013-06-26 04:22:00,59.0,44.0,-100.00,SSE,151,7.0,12.0,57,0.00,,,0.00,0.000000,,2013-06-26 10:22:00,
2013-06-26 04:34:00,59.0,44.0,-100.00,SSE,151,7.0,12.0,57,0.00,,,0.00,0.000000,,2013-06-26 10:34:00,
2013-06-26 04:43:00,59.0,44.0,-100.00,SSE,151,7.0,12.0,57,0.00,,,0.00,0.000000,,2013-06-26 10:43:00,
2013-06-26 04:53:00,59.0,44.0,-100.00,SSE,151,7.0,12.0,57,0.00,,,0.00,0.000000,,2013-06-26 10:53:00,
2013-06-26 05:02:00,59.0,44.0,-100.00,SSE,151,7.0,12.0,57,0.00,,,0.00,0.000000,,2013-06-26 11:02:00,
2013-06-26 05:23:00,59.0,44.0,-100.00,SSE,166,6.0,12.0,57,0.00,,,0.00,0.000000,,2013-06-26 11:23:00,
2013-06-26 05:33:00,59.0,44.0,-100.00,SSE,166,6.0,12.0,57,0.00,,,0.00,0.000000,,2013-06-26 11:33:00,
2013-06-26 05:44:00,59.0,44.0,-100.00,SSE,166,6.0,12.0,57,0.00,,,0.00,0.000000,,2013-06-26 11:44:00,
2013-06-26 05:52:00,59.0,44.0,-100.00,SSE,166,6.0,12.0,57,0.00,,,0.00,0.000000,,2013-06-26 11:52:00,
2013-06-26 06:02:00,59.0,44.0,-100.00,SSE,166,6.0,12.0,57,0.00,,,0.00,0.000000,,2013-06-26 12:02:00,
2013-06-26 06:22:00,59.0,43.0,-100.00,South,176,8.0,14.0,56,0.00,,,0.00,2.000000,,2013-06-26 12:22:00,
2013-06-26 06:34:00,59.0,43.0,-100.00,South,176,8.0,14.0,56,0.00,,,0.00,2.000000,,2013-06-26 12:34:00,
2013-06-26 06:43:00,59.0,43.0,-100.00,South,176,8.0,14.0,56,0.00,,,0.00,2.000000,,2013-06-26 12:43:00,
2013-06-26 06:52:00,59.0,43.0,-100.00,South,176,8.0,14.0,56,0.00,,,0.00,2.000000,,2013-06-26 12:52:00,
2013-06-26 07:02:00,59.0,43.0,-100.00,South,176,8.0,14.0,56,0.00,,,0.00,2.000000,,2013-06-26 13:02:00,
2013-06-26 07:34:00,61.0,45.0,-100.00,SSW,208,7.0,13.0,55,0.00,,,-99.99,25.000000,,2013-06-26 13:34:00,
2013-06-26 07:43:00,61.0,45.0,-100.00,SSW,208,7.0,13.0,55,0.00,,,-99.99,25.000000,,2013-06-26 13:43:00,
2013-06-26 07:53:00,61.0,45.0,-100.00,SSW,208,7.0,13.0,55,0.00,,,-99.99,25.000000,,2013-06-26 13:53:00,
2013-06-26 08:02:00,61.0,45.0,-100.00,SSW,208,7.0,13.0,55,0.00,,,-99.99,25.000000,,2013-06-26 14:02:00,
2013-06-26 08:34:00,62.0,45.0,-100.00,SSE,167,9.0,13.0,54,0.00,,,0.00,86.000000,,2013-06-26 14:34:00,
2013-06-26 08:42:00,62.0,45.0,-100.00,SSE,167,9.0,13.0,54,0.00,,,0.00,86.000000,,2013-06-26 14:42:00,
2013-06-26 08:53:00,62.0,45.0,-100.00,SSE,167,9.0,13.0,54,0.00,,,0.00,86.000000,,2013-06-26 14:53:00,
2013-06-26 09:02:00,62.0,45.0,-100.00,SSE,167,9.0,13.0,54,0.00,,,0.00,86.000000,,2013-06-26 15:02:00,
2013-06-26 09:34:00,64.0,42.0,-100.00,SSW,193,8.0,17.0,45,0.00,,,0.00,171.000000,,2013-06-26 15:34:00,
2013-06-26 09:44:00,64.0,42.0,-100.00,SSW,193,8.0,17.0,45,0.00,,,0.00,171.000000,,2013-06-26 15:44:00,
2013-06-26 09:53:00,64.0,42.0,-100.00,SSW,193,8.0,17.0,45,0.00,,,0.00,171.000000,,2013-06-26 15:53:00,
2013-06-26 10:01:00,64.0,42.0,-100.00,SSW,193,8.0,17.0,45,0.00,,,0.00,171.000000,,2013-06-26 16:01:00,
2013-06-26 10:34:00,66.0,42.0,-100.00,SSW,197,10.0,17.0,41,0.00,,,0.00,220.000000,,2013-06-26 16:34:00,
2013-06-26 10:43:00,66.0,42.0,-100.00,SSW,197,10.0,17.0,41,0.00,,,0.00,220.000000,,2013-06-26 16:43:00,
2013-06-26 10:52:00,66.0,42.0,-100.00,SSW,197,10.0,17.0,41,0.00,,,0.00,220.000000,,2013-06-26 16:52:00,
2013-06-26 11:01:00,66.0,42.0,-100.00,SSW,197,10.0,17.0,41,0.00,,,0.00,220.000000,,2013-06-26 17:01:00,
2013-06-26 11:33:00,68.0,41.0,-100.00,SSW,200,12.0,21.0,37,0.00,,,0.00,351.000000,,2013-06-26 17:33:00,
2013-06-26 11:43:00,68.0,41.0,-100.00,SSW,200,12.0,21.0,37,0.00,,,0.00,351.000000,,2013-06-26 17:43:00,
2013-06-26 11:52:00,68.0,41.0,-100.00,SSW,200,12.0,21.0,37,0.00,,,0.00,351.000000,,2013-06-26 17:52:00,
2013-06-26 12:01:00,68.0,41.0,-100.00,SSW,200,12.0,21.0,37,0.00,,,0.00,351.000000,,2013-06-26 18:01:00,
2013-06-26 12:34:00,71.0,42.0,-100.00,SW,225,13.0,22.0,35,0.00,,,0.00,442.000000,,2013-06-26 18:34:00,
2013-06-26 12:43:00,71.0,42.0,-100.00,SW,225,13.0,22.0,35,0.00,,,0.00,442.000000,,2013-06-26 18:43:00,
2013-06-26 12:52:00,71.0,42.0,-100.00,SW,225,13.0,22.0,35,0.00,,,0.00,442.000000,,2013-06-26 18:52:00,
2013-06-26 13:01:00,71.0,42.0,-100.00,SW,225,13.0,22.0,35,0.00,,,0.00,442.000000,,2013-06-26 19:01:00,
2013-06-26 13:33:00,75.0,41.0,-100.00,WSW,254,11.0,24.0,29,0.00,,,0.00,1088.000000,,2013-06-26 19:33:00,
2013-06-26 13:43:00,75.0,41.0,-100.00,WSW,254,11.0,24.0,29,0.00,,,0.00,1088.000000,,2013-06-26 19:43:00,
2013-06-26 13:52:00,75.0,41.0,-100.00,WSW,254,11.0,24.0,29,0.00,,,0.00,1088.000000,,2013-06-26 19:52:00,
2013-06-26 14:01:00,75.0,41.0,-100.00,WSW,254,11.0,24.0,29,0.00,,,0.00,1088.000000,,2013-06-26 20:01:00,
2013-06-26 15:23:00,77.0,40.0,-100.00,WSW,252,11.0,23.0,27,0.00,,,0.00,1129.000000,,2013-06-26 21:23:00,
2013-06-26 15:33:00,77.0,40.0,-100.00,WSW,252,11.0,23.0,27,0.00,,,0.00,1129.000000,,2013-06-26 21:33:00,
2013-06-26 15:43:00,77.0,40.0,-100.00,WSW,252,11.0,23.0,27,0.00,,,0.00,1129.000000,,2013-06-26 21:43:00,
2013-06-26 15:52:00,77.0,40.0,-100.00,WSW,252,11.0,23.0,27,0.00,,,0.00,1129.000000,,2013-06-26 21:52:00,
2013-06-26 16:01:00,77.0,40.0,-100.00,WSW,252,11.0,23.0,27,0.00,,,0.00,1129.000000,,2013-06-26 22:01:00,
2013-06-26 16:34:00,79.0,43.0,-100.00,North,0,8.0,22.0,28,0.00,,,0.00,1105.000000,,2013-06-26 22:34:00,
2013-06-26 16:43:00,79.0,43.0,-100.00,North,0,8.0,22.0,28,0.00,,,0.00,1105.000000,,2013-06-26 22:43:00,
2013-06-26 16:52:00,79.0,43.0,-100.00,North,0,8.0,22.0,28,0.00,,,0.00,1105.000000,,2013-06-26 22:52:00,
2013-06-26 17:01:00,79.0,43.0,-100.00,North,0,8.0,22.0,28,0.00,,,0.00,1105.000000,,2013-06-26 23:01:00,
2013-06-26 17:22:00,71.0,45.0,-100.00,North,356,15.0,24.0,40,0.00,,,0.00,283.000000,,2013-06-26 23:22:00,
2013-06-26 17:34:00,71.0,45.0,-100.00,North,356,15.0,24.0,40,0.00,,,0.00,283.000000,,2013-06-26 23:34:00,
2013-06-26 17:43:00,71.0,45.0,-100.00,North,356,15.0,24.0,40,0.00,,,0.00,283.000000,,2013-06-26 23:43:00,
2013-06-26 17:53:00,71.0,45.0,-100.00,North,356,15.0,24.0,40,0.00,,,0.00,283.000000,,2013-06-26 23:53:00,
2013-06-26 18:01:00,71.0,45.0,-100.00,North,356,15.0,24.0,40,0.00,,,0.00,283.000000,,2013-06-27 00:01:00,
2013-06-26 18:33:00,72.0,46.0,-100.00,North,3,16.0,25.0,40,0.00,,,0.00,255.000000,,2013-06-27 00:33:00,
2013-06-26 18:43:00,72.0,46.0,-100.00,North,3,16.0,25.0,40,0.00,,,0.00,255.000000,,2013-06-27 00:43:00,
2013-06-26 18:53:00,72.0,46.0,-100.00,North,3,16.0,25.0,40,0.00,,,0.00,255.000000,,2013-06-27 00:53:00,
2013-06-26 19:01:00,72.0,46.0,-100.00,North,3,16.0,25.0,40,0.00,,,0.00,255.000000,,2013-06-27 01:01:00,
2013-06-26 19:22:00,73.0,44.0,-100.00,NNW,332,11.0,26.0,35,0.00,,,0.00,366.000000,,2013-06-27 01:22:00,
2013-06-26 19:32:00,73.0,44.0,-100.00,NNW,332,11.0,26.0,35,0.00,,,0.00,366.000000,,2013-06-27 01:32:00,
2013-06-26 19:43:00,73.0,44.0,-100.00,NNW,332,11.0,26.0,35,0.00,,,0.00,366.000000,,2013-06-27 01:43:00,
2013-06-26 19:53:00,73.0,44.0,-100.00,NNW,332,11.0,26.0,35,0.00,,,0.00,366.000000,,2013-06-27 01:53:00,
2013-06-26 20:01:00,73.0,44.0,-100.00,NNW,332,11.0,26.0,35,0.00,,,0.00,366.000000,,2013-06-27 02:01:00,
2013-06-26 20:22:00,69.0,44.0,-100.00,NNE,12,10.0,23.0,40,0.00,,,0.00,310.000000,,2013-06-27 02:22:00,
2013-06-26 20:32:00,69.0,44.0,-100.00,NNE,12,10.0,23.0,40,0.00,,,0.00,310.000000,,2013-06-27 02:32:00,
2013-06-26 20:42:00,69.0,44.0,-100.00,NNE,12,10.0,23.0,40,0.00,,,0.00,310.000000,,2013-06-27 02:42:00,
2013-06-26 20:52:00,69.0,44.0,-100.00,NNE,12,10.0,23.0,40,0.00,,,0.00,310.000000,,2013-06-27 02:52:00,
2013-06-26 21:01:00,69.0,44.0,-100.00,NNE,12,10.0,23.0,40,0.00,,,0.00,310.000000,,2013-06-27 03:01:00,
2013-06-26 21:22:00,67.0,44.0,-100.00,NE,56,3.0,16.0,44,0.00,,,0.00,121.000000,,2013-06-27 03:22:00,
2013-06-26 21:33:00,67.0,44.0,-100.00,NE,56,3.0,16.0,44,0.00,,,0.00,121.000000,,2013-06-27 03:33:00,
2013-06-26 21:42:00,67.0,44.0,-100.00,NE,56,3.0,16.0,44,0.00,,,0.00,121.000000,,2013-06-27 03:42:00,
2013-06-26 21:52:00,67.0,44.0,-100.00,NE,56,3.0,16.0,44,0.00,,,0.00,121.000000,,2013-06-27 03:52:00,
2013-06-26 22:01:00,67.0,44.0,-100.00,NE,56,3.0,16.0,44,0.00,,,0.00,121.000000,,2013-06-27 04:01:00,
2013-06-26 22:22:00,61.0,45.0,-100.00,WSW,249,4.0,7.0,55,0.00,,,0.00,5.000000,,2013-06-27 04:22:00,
2013-06-26 22:33:00,61.0,45.0,-100.00,WSW,249,4.0,7.0,55,0.00,,,0.00,5.000000,,2013-06-27 04:33:00,
2013-06-26 22:42:00,61.0,45.0,-100.00,WSW,249,4.0,7.0,55,0.00,,,0.00,5.000000,,2013-06-27 04:42:00,
2013-06-26 22:52:00,61.0,45.0,-100.00,WSW,249,4.0,7.0,55,0.00,,,0.00,5.000000,,2013-06-27 04:52:00,
2013-06-26 23:02:00,61.0,45.0,-100.00,WSW,249,4.0,7.0,55,0.00,,,0.00,5.000000,,2013-06-27 05:02:00,
2013-06-26 23:22:00,60.0,45.0,-100.00,West,259,2.0,10.0,57,0.00,,,0.00,0.000000,,2013-06-27 05:22:00,
2013-06-26 23:32:00,60.0,45.0,-100.00,West,259,2.0,10.0,57,0.00,,,0.00,0.000000,,2013-06-27 05:32:00,
2013-06-26 23:42:00,60.0,45.0,-100.00,West,259,2.0,10.0,57,0.00,,,0.00,0.000000,,2013-06-27 05:42:00,
2013-06-26 23:53:00,60.0,45.0,-100.00,West,259,2.0,10.0,57,0.00,,,0.00,0.000000,,2013-06-27 05:53:00,